This is the latest recevied weather packets stored in our database for station/object N5ATR. If no packets are shown the sender has not sent any weather packets the latest 10 day(s).
| Time | Temp. | Humidity | Pressure | Rain* | Wind** | Luminosity | Snow |
|---|---|---|---|---|---|---|---|
| 1788657225 | 26.11° C | 36% | 1021.2 hPa | 0 mm | - | 11 W/m² | - |
| 1788656921 | 26.67° C | 35% | 1021.2 hPa | 0 mm | - | 14 W/m² | - |
| 1788656617 | 26.67° C | 34% | 1021.3 hPa | 0 mm | - | 18 W/m² | - |
| 1788656312 | 26.67° C | 33% | 1021.5 hPa | 0 mm | - | 22 W/m² | - |
| 1788656011 | 27.22° C | 33% | 1021.3 hPa | 0 mm | - | 23 W/m² | - |
| 1788655710 | 27.22° C | 33% | 1021.2 hPa | 0 mm | - | 28 W/m² | - |
| 1788655410 | 27.78° C | 33% | 1021.4 hPa | 0 mm | - | 29 W/m² | - |
| 1788655105 | 27.78° C | 32% | 1021.3 hPa | 0 mm | - | 37 W/m² | - |
| 1788654801 | 28.33° C | 32% | 1021.4 hPa | 0 mm | - | 40 W/m² | - |
| 1788654496 | 28.33° C | 32% | 1021.3 hPa | 0 mm | - | 47 W/m² | - |
| 1788654195 | 27.78° C | 32% | 1021.4 hPa | 0 mm | - | 52 W/m² | - |
| 1788653891 | 28.89° C | 31% | 1021.2 hPa | 0 mm | - | 69 W/m² | - |
| 1788653587 | 28.33° C | 31% | 1021.2 hPa | 0 mm | - | 89 W/m² | - |
| 1788653287 | 28.33° C | 32% | 1021.3 hPa | 0 mm | - | 74 W/m² | - |
| 1788652981 | 28.33° C | 31% | 1021.3 hPa | 0 mm | - | 103 W/m² | - |
| 1788652677 | 28.33° C | 32% | 1021 hPa | 0 mm | - | 66 W/m² | - |
| 1788652376 | 28.33° C | 31% | 1021 hPa | 0 mm | - | 85 W/m² | - |
| 1788652072 | 28.33° C | 31% | 1021.2 hPa | 0 mm | - | 124 W/m² | - |
| 1788651767 | 28.89° C | 30% | 1021 hPa | 0 mm | - | 93 W/m² | - |
| 1788651462 | 29.44° C | 30% | 1020.9 hPa | 0 mm | - | 180 W/m² | - |
| 1788651162 | 28.89° C | 30% | 1020.8 hPa | 0 mm | - | 203 W/m² | - |
| 1788650862 | 28.89° C | 31% | 1021 hPa | 0 mm | - | 208 W/m² | - |
| 1788650558 | 28.89° C | 30% | 1021.3 hPa | 0 mm | - | 147 W/m² | - |
| 1788650253 | 29.44° C | 30% | 1021 hPa | 0 mm | - | 225 W/m² | - |
| 1788649948 | 29.44° C | 30% | 1020.9 hPa | 0 mm | - | 274 W/m² | - |
* Rain latest hour (hover to see other rain measurements)
** Current wind speed in m/s (hover to see current wind gust speed)